一网星座-0520星 (ONEWEB-0520 )

导读

ONEWEB-0520是英国OneWeb公司(一网公司)的低轨卫星互联网星座组网卫星,于2022年10月22日发射。OneWeb是全球第二大卫星互联网运营商,依托近地轨道卫星星座提供全球高速宽带接入服务,ONEWEB-0520的成功入轨,进一步推进了OneWeb星座的全面部署,助力实现全球覆盖的卫星互联网通信服务。

基本信息
目录编号:
54138
目录名称:
ONEWEB-0520
国际标识:
2022-138AB
轨道中心:
EARTH
卫星名称:
一网星座-0520星
卫星全名:
一网星座-0520星 (ONEWEB-0520 )
卫星状态:
在轨 (已飞行1424 天)
发射日期:
2022-10-22 UTC
国别 :
英国 (GB)
星等 :
--
该卫星已列入 空间交会检测服务 Space Conjunction Data Service (SCDS) ,当前飞行风险评估等级: 无高风险
轨道信息
数据来源 国际轨道数据 AOE轨道数据
星历时间 2026-09-15T20:05:00+0800
11小时前
查看轨道信息
2026-09-15T22:00:00+0800
9小时前
查看轨道信息
半长轴 7563.908km 7563.902km
偏心率 0.000199 0.0002049
轨道倾角 87.911° 87.913°
近地点辐角 84.953° 77.426°
升交点赤经 286.978° 286.962°
平近点角 275.183° 301.911°
近地点 1184.265km 1184.215km
远地点 1187.277km 1187.315km
周期 109.114分钟 109.114分钟
每日圈数 13.197251 13.197265
详细信息
平衡模式:
三轴稳定
覆盖范围:
全球
运营商:
一网卫星公司
运营商所在国:
英国
制造商(研发单位):
一网卫星公司
制造商所在国:
英国
使用方式:
暂无
卫星简介
OneWeb卫星网络由648颗重约125公斤的微型卫星组成,运行在1200公里的轨道上。 每颗卫星都能够提供至少每秒8千兆位的吞吐量,以使用其高吞吐量的Ku频段有效载荷为家庭和移动平台提供互联网接入。该卫星仍在工作。
2D轨道图
3D轨道图
轨道高度分析图
轨道倾角分析图
轨道综合分析图
查看轨道综合分析图
与全量物体交会距离演化趋势 订阅飞行安全评估服务
与全量物体交会风险概率演化趋势 订阅飞行安全评估服务